Dubuque, IA

1:14 AM CST on November 20, 2019 (GMT -0600)
Dubuque Regional

Weather History for KDBQ - September, 2019

Change the Weather History Date:

Monday, September 2, 2019

  Actual Average Record
Temperature  
Mean Temperature 70 °F 67 °F  
Max Temperature 81 °F 77 °F 97 °F (1913)
Min Temperature 60 °F 57 °F 44 °F (1946)
Degree Days  
Heating Degree Days 0 2  
Month to date heating degree days 0 4  
Since 1 July heating degree days 9 31  
Cooling Degree Days 6 4  
Month to date cooling degree days 7 8  
Year to date cooling degree days 580 584  
Growing Degree Days 20 (Base 50)    
Moisture  
Dew Point 66 °F    
Average Humidity 86    
Maximum Humidity 100    
Minimum Humidity 69    
Precipitation  
Precipitation 0.00 in 0.12 in 0.97 in (1887)
Month to date precipitation 0.00 0.25  
Year to date precipitation 31.13 26.23  
Snow  
Snow 0.00 in 0.00 in - ()
Month to date snowfall 0.0 0.0  
Since 1 July snowfall 0.0 0.0  
Since 1 September snowfall 0.0 0.0  
Snow Depth 0.00 in    
Sea Level Pressure  
Sea Level Pressure 30.07 in    
Wind  
Wind Speed 4 mph ()    
Max Wind Speed 16 mph    
Max Gust Speed 24 mph    
Visibility 8.7 miles    
Events      
T = Trace of Precipitation, MM = Missing Value Source: Averaged Metar Reports

Daily Weather History Graph

Daily Weather History Graph

Search for Another Location

Airport or City:

Astronomy

Sep. 02, 2019 Rise Set
Actual Time 6:28 AM CDT 7:35 PM CDT
Civil Twilight 5:59 AM CDT 8:04 PM CDT
Nautical Twilight 5:25 AM CDT 8:38 PM CDT
Astronomical Twilight 4:49 AM CDT 9:14 PM CDT
Moon 10:15 AM CDT (9/2) 9:52 PM CDT (9/2)
Length of Visible Light 14h 04m
Length of Day
13h 06m
Waxing Crescent, 15% of the Moon is Illuminated
Sep 2
Waxing Crescent
Sep 5
First Quarter
Sep 13
Full
Sep 21
Last Quarter
Sep 28
New

Hourly Weather History & Observations

Time (CDT) Temp. Heat Index Dew Point Humidity Pressure Visibility Wind Dir Wind Speed Gust Speed Precip Events Conditions
12:53 AM 62.1 °F - 61.0 °F 96% 30.09 in 8.0 mi SSW 4.6 mph - N/A   Clear
1:53 AM 62.1 °F - 62.1 °F 100% 30.10 in 7.0 mi Calm Calm - N/A   Mostly Cloudy
2:53 AM 62.1 °F - 61.0 °F 96% 30.09 in 8.0 mi SSW 4.6 mph - N/A   Overcast
3:53 AM 63.0 °F - 62.1 °F 97% 30.11 in 7.0 mi Calm Calm - N/A   Overcast
4:53 AM 64.0 °F - 63.0 °F 96% 30.10 in 7.0 mi Calm Calm - N/A   Overcast
5:53 AM 64.0 °F - 63.0 °F 96% 30.12 in 7.0 mi South 4.6 mph - N/A   Overcast
6:53 AM 62.1 °F - 61.0 °F 96% 30.12 in 4.0 mi SSW 3.5 mph - N/A   Scattered Clouds
7:53 AM 64.9 °F - 64.0 °F 97% 30.12 in 4.0 mi SW 4.6 mph - N/A   Clear
8:53 AM 69.1 °F - 66.0 °F 90% 30.12 in 7.0 mi SW 5.8 mph - N/A   Clear
9:53 AM 73.0 °F - 68.0 °F 84% 30.11 in 10.0 mi WSW 5.8 mph - N/A   Clear
10:53 AM 75.0 °F - 68.0 °F 79% 30.12 in 10.0 mi SW 6.9 mph - N/A   Overcast
11:53 AM 75.9 °F - 68.0 °F 76% 30.11 in 10.0 mi WSW 10.4 mph - N/A   Overcast
12:53 PM 77.0 °F - 68.0 °F 74% 30.09 in 10.0 mi SW 6.9 mph - N/A   Mostly Cloudy
1:53 PM 78.1 °F - 69.1 °F 74% 30.08 in 10.0 mi SW 6.9 mph - N/A   Overcast
2:53 PM 78.1 °F - 69.1 °F 74% 30.07 in 10.0 mi SSW 5.8 mph - N/A   Mostly Cloudy
3:53 PM 79.0 °F - 68.0 °F 69% 30.05 in 10.0 mi SW 8.1 mph - N/A   Mostly Cloudy
4:53 PM 80.1 °F 82.9 °F 69.1 °F 69% 30.03 in 10.0 mi SW 9.2 mph - N/A   Mostly Cloudy
5:53 PM 78.1 °F - 69.1 °F 74% 30.03 in 10.0 mi SSW 8.1 mph - N/A   Partly Cloudy
6:53 PM 75.9 °F - 68.0 °F 76% 30.02 in 10.0 mi SSW 8.1 mph - N/A   Clear
7:53 PM 70.0 °F - 68.0 °F 93% 30.02 in 10.0 mi South 4.6 mph - N/A   Clear
8:53 PM 71.1 °F - 66.9 °F 87% 29.99 in 10.0 mi SSE 9.2 mph - N/A   Partly Cloudy
9:53 PM 69.1 °F - 66.9 °F 93% 29.99 in 10.0 mi South 6.9 mph - N/A   Clear
10:53 PM 69.1 °F - 66.9 °F 93% 29.98 in 10.0 mi South 8.1 mph - N/A   Clear
11:53 PM 69.1 °F - 66.9 °F 93% 29.95 in 10.0 mi South 10.4 mph - N/A   Clear